Time,TemperatureF,DewpointF,PressureIn,WindDirection,WindDirectionDegrees,WindSpeedMPH,WindSpeedGustMPH,Humidity,HourlyPrecipIn,Conditions,Clouds,dailyrainin,SoftwareType,DateUTC
2013-11-24 00:05:00,41.2,25.8,30.19,SW,227,0.0,0.0,54,0.00,,,0.00,Wunderground v.1.15,2013-11-24 05:05:00,
2013-11-24 00:10:00,41.1,25.7,30.19,SSW,213,0.0,0.0,54,0.00,,,0.00,Wunderground v.1.15,2013-11-24 05:10:00,
2013-11-24 00:15:00,40.9,26.0,30.19,SW,215,0.0,0.0,55,0.00,,,0.00,Wunderground v.1.15,2013-11-24 05:15:00,
2013-11-24 00:25:00,40.7,25.8,30.19,West,279,0.0,0.0,55,0.00,,,0.00,Wunderground v.1.15,2013-11-24 05:25:00,
2013-11-24 00:30:00,40.6,25.7,30.19,West,279,0.0,0.0,55,0.00,,,0.00,Wunderground v.1.15,2013-11-24 05:30:00,
2013-11-24 00:35:00,40.5,25.6,30.19,West,279,0.0,0.0,55,0.00,,,0.00,Wunderground v.1.15,2013-11-24 05:35:00,
2013-11-24 00:40:00,40.3,25.0,30.19,WNW,287,0.0,0.0,54,0.00,,,0.00,Wunderground v.1.15,2013-11-24 05:40:00,
2013-11-24 00:45:00,40.4,24.6,30.19,WSW,248,1.0,1.0,53,0.00,,,0.00,Wunderground v.1.15,2013-11-24 05:45:00,
2013-11-24 00:50:00,40.6,24.8,30.19,West,277,1.0,1.0,53,0.00,,,0.00,Wunderground v.1.15,2013-11-24 05:50:00,
2013-11-24 00:55:00,40.6,24.8,30.19,WNW,298,1.0,1.0,53,0.00,,,0.00,Wunderground v.1.15,2013-11-24 05:55:00,
2013-11-24 01:00:00,40.6,24.3,30.20,NNW,346,0.0,0.0,52,0.00,,,0.00,Wunderground v.1.15,2013-11-24 06:00:00,
2013-11-24 01:05:00,40.5,24.7,30.20,NW,317,0.0,0.0,53,0.00,,,0.00,Wunderground v.1.15,2013-11-24 06:05:00,
2013-11-24 01:15:00,40.2,24.9,30.20,NW,322,0.0,2.0,54,0.00,,,0.00,Wunderground v.1.15,2013-11-24 06:15:00,
2013-11-24 01:20:00,40.2,24.0,30.21,SSE,161,2.0,2.0,52,0.00,,,0.00,Wunderground v.1.15,2013-11-24 06:20:00,
2013-11-24 01:25:00,40.1,23.4,30.21,WSW,248,2.0,2.0,51,0.00,,,0.00,Wunderground v.1.15,2013-11-24 06:25:00,
2013-11-24 01:30:00,39.9,22.7,30.21,WNW,301,1.0,1.0,50,0.00,,,0.00,Wunderground v.1.15,2013-11-24 06:30:00,
2013-11-24 01:35:00,39.6,22.5,30.22,ENE,66,1.0,1.0,50,0.00,,,0.00,Wunderground v.1.15,2013-11-24 06:35:00,
2013-11-24 01:45:00,39.2,21.6,30.23,West,275,1.0,1.0,49,0.00,,,0.00,Wunderground v.1.15,2013-11-24 06:45:00,
2013-11-24 01:50:00,39.0,21.4,30.23,NNW,328,1.0,1.0,49,0.00,,,0.00,Wunderground v.1.15,2013-11-24 06:50:00,
2013-11-24 01:55:00,38.8,21.3,30.23,South,184,2.0,2.0,49,0.00,,,0.00,Wunderground v.1.15,2013-11-24 06:55:00,
2013-11-24 02:00:00,38.6,21.1,30.23,SW,226,1.0,1.0,49,0.00,,,0.00,Wunderground v.1.15,2013-11-24 07:00:00,
2013-11-24 02:05:00,38.3,20.3,30.23,SW,224,1.0,1.0,48,0.00,,,0.00,Wunderground v.1.15,2013-11-24 07:05:00,
2013-11-24 02:15:00,37.9,19.4,30.23,WNW,286,2.0,2.0,47,0.00,,,0.00,Wunderground v.1.15,2013-11-24 07:15:00,
2013-11-24 02:20:00,37.8,19.8,30.24,NW,304,2.0,2.0,48,0.00,,,0.00,Wunderground v.1.15,2013-11-24 07:20:00,
2013-11-24 02:25:00,37.6,19.2,30.23,NW,310,1.0,4.0,47,0.00,,,0.00,Wunderground v.1.15,2013-11-24 07:25:00,
2013-11-24 02:30:00,37.4,19.5,30.23,South,182,1.0,1.0,48,0.00,,,0.00,Wunderground v.1.15,2013-11-24 07:30:00,
2013-11-24 02:35:00,37.2,19.3,30.23,WNW,298,1.0,1.0,48,0.00,,,0.00,Wunderground v.1.15,2013-11-24 07:35:00,
2013-11-24 02:40:00,37.0,19.1,30.24,NNW,338,1.0,1.0,48,0.00,,,0.00,Wunderground v.1.15,2013-11-24 07:40:00,
2013-11-24 02:45:00,36.7,19.3,30.25,NNW,331,1.0,1.0,49,0.00,,,0.00,Wunderground v.1.15,2013-11-24 07:45:00,
2013-11-24 02:55:00,36.2,18.9,30.25,SE,134,1.0,3.0,49,0.00,,,0.00,Wunderground v.1.15,2013-11-24 07:55:00,
2013-11-24 03:00:00,36.1,18.8,30.25,NW,315,1.0,1.0,49,0.00,,,0.00,Wunderground v.1.15,2013-11-24 08:00:00,
2013-11-24 03:05:00,35.9,18.6,30.24,NNW,331,1.0,2.0,49,0.00,,,0.00,Wunderground v.1.15,2013-11-24 08:05:00,
2013-11-24 03:15:00,35.7,18.4,30.25,NW,311,1.0,2.0,49,0.00,,,0.00,Wunderground v.1.15,2013-11-24 08:15:00,
2013-11-24 03:20:00,35.5,18.7,30.25,West,262,1.0,2.0,50,0.00,,,0.00,Wunderground v.1.15,2013-11-24 08:20:00,
2013-11-24 03:25:00,35.3,18.5,30.25,NNE,17,1.0,2.0,50,0.00,,,0.00,Wunderground v.1.15,2013-11-24 08:25:00,
2013-11-24 03:30:00,35.1,18.3,30.25,WNW,299,1.0,1.0,50,0.00,,,0.00,Wunderground v.1.15,2013-11-24 08:30:00,
2013-11-24 03:40:00,34.9,18.6,30.25,West,260,1.0,2.0,51,0.00,,,0.00,Wunderground v.1.15,2013-11-24 08:40:00,
2013-11-24 03:45:00,34.7,18.4,30.26,North,9,1.0,2.0,51,0.00,,,0.00,Wunderground v.1.15,2013-11-24 08:45:00,
2013-11-24 03:50:00,34.5,18.2,30.27,SSE,163,1.0,1.0,51,0.00,,,0.00,Wunderground v.1.15,2013-11-24 08:50:00,
2013-11-24 03:55:00,34.4,18.1,30.27,North,349,1.0,1.0,51,0.00,,,0.00,Wunderground v.1.15,2013-11-24 08:55:00,
2013-11-24 04:00:00,34.4,18.1,30.28,WNW,295,1.0,1.0,51,0.00,,,0.00,Wunderground v.1.15,2013-11-24 09:00:00,
2013-11-24 04:05:00,34.3,18.0,30.28,WNW,284,1.0,1.0,51,0.00,,,0.00,Wunderground v.1.15,2013-11-24 09:05:00,
2013-11-24 04:15:00,33.9,18.1,30.28,WNW,302,1.0,1.0,52,0.00,,,0.00,Wunderground v.1.15,2013-11-24 09:15:00,
2013-11-24 04:20:00,33.7,17.9,30.29,SSE,162,1.0,1.0,52,0.00,,,0.00,Wunderground v.1.15,2013-11-24 09:20:00,
2013-11-24 04:30:00,33.4,17.6,30.29,SSW,207,0.0,2.0,52,0.00,,,0.00,Wunderground v.1.15,2013-11-24 09:30:00,
2013-11-24 04:35:00,33.2,17.0,30.29,South,187,0.0,2.0,51,0.00,,,0.00,Wunderground v.1.15,2013-11-24 09:35:00,
2013-11-24 04:40:00,33.0,17.3,30.30,SSE,164,1.0,1.0,52,0.00,,,0.00,Wunderground v.1.15,2013-11-24 09:40:00,
2013-11-24 04:50:00,32.8,16.2,30.30,NW,312,1.0,1.0,50,0.00,,,0.00,Wunderground v.1.15,2013-11-24 09:50:00,
2013-11-24 04:55:00,32.7,16.1,30.30,NNE,13,1.0,1.0,50,0.00,,,0.00,Wunderground v.1.15,2013-11-24 09:55:00,
2013-11-24 05:00:00,32.5,15.9,30.31,WNW,292,1.0,1.0,50,0.00,,,0.00,Wunderground v.1.15,2013-11-24 10:00:00,
2013-11-24 05:05:00,32.4,15.8,30.31,NW,323,1.0,1.0,50,0.00,,,0.00,Wunderground v.1.15,2013-11-24 10:05:00,
2013-11-24 05:15:00,32.2,15.6,30.32,SW,232,1.0,3.0,50,0.00,,,0.00,Wunderground v.1.15,2013-11-24 10:15:00,
2013-11-24 05:20:00,32.2,15.6,30.32,North,355,1.0,1.0,50,0.00,,,0.00,Wunderground v.1.15,2013-11-24 10:20:00,
2013-11-24 05:25:00,32.1,16.0,30.32,WNW,294,0.0,1.0,51,0.00,,,0.00,Wunderground v.1.15,2013-11-24 10:25:00,
2013-11-24 05:35:00,31.7,16.1,30.32,NW,315,0.0,0.0,52,0.00,,,0.00,Wunderground v.1.15,2013-11-24 10:35:00,
2013-11-24 05:40:00,31.5,15.4,30.33,NW,309,0.0,1.0,51,0.00,,,0.00,Wunderground v.1.15,2013-11-24 10:40:00,
2013-11-24 05:45:00,31.4,15.8,30.33,NNW,343,0.0,1.0,52,0.00,,,0.00,Wunderground v.1.15,2013-11-24 10:45:00,
2013-11-24 05:50:00,31.2,16.0,30.33,SW,233,0.0,0.0,53,0.00,,,0.00,Wunderground v.1.15,2013-11-24 10:50:00,
2013-11-24 05:55:00,31.0,15.8,30.34,NNW,342,0.0,0.0,53,0.00,,,0.00,Wunderground v.1.15,2013-11-24 10:55:00,
2013-11-24 06:05:00,30.7,16.0,30.34,WSW,250,0.0,1.0,54,0.00,,,0.00,Wunderground v.1.15,2013-11-24 11:05:00,
2013-11-24 06:15:00,30.5,15.8,30.35,WNW,285,1.0,1.0,54,0.00,,,0.00,Wunderground v.1.15,2013-11-24 11:15:00,
2013-11-24 06:25:00,30.4,16.1,30.36,North,360,1.0,1.0,55,0.00,,,0.00,Wunderground v.1.15,2013-11-24 11:25:00,
2013-11-24 06:30:00,30.3,16.0,30.36,NW,312,0.0,0.0,55,0.00,,,0.00,Wunderground v.1.15,2013-11-24 11:30:00,
2013-11-24 06:35:00,30.1,15.4,30.36,SSE,157,0.0,2.0,54,0.00,,,0.00,Wunderground v.1.15,2013-11-24 11:35:00,
2013-11-24 06:40:00,30.0,15.8,30.36,NNW,330,0.0,0.0,55,0.00,,,0.00,Wunderground v.1.15,2013-11-24 11:40:00,
2013-11-24 06:45:00,29.8,15.6,30.37,NW,316,0.0,0.0,55,0.00,,,0.00,Wunderground v.1.15,2013-11-24 11:45:00,
2013-11-24 06:55:00,29.6,15.4,30.37,WNW,290,0.0,0.0,55,0.00,,,0.00,Wunderground v.1.15,2013-11-24 11:55:00,
2013-11-24 07:00:00,29.4,15.2,30.37,WNW,295,0.0,0.0,55,0.00,,,0.00,Wunderground v.1.15,2013-11-24 12:00:00,
2013-11-24 07:05:00,29.3,14.3,30.38,NW,311,0.0,0.0,53,0.00,,,0.00,Wunderground v.1.15,2013-11-24 12:05:00,
2013-11-24 07:15:00,29.2,13.7,30.38,WNW,290,0.0,0.0,52,0.00,,,0.00,Wunderground v.1.15,2013-11-24 12:15:00,
2013-11-24 07:20:00,29.2,13.7,30.39,NNW,329,0.0,0.0,52,0.00,,,0.00,Wunderground v.1.15,2013-11-24 12:20:00,
2013-11-24 07:25:00,29.0,14.0,30.39,WSW,245,0.0,0.0,53,0.00,,,0.00,Wunderground v.1.15,2013-11-24 12:25:00,
2013-11-24 07:35:00,29.0,13.1,30.40,North,5,1.0,2.0,51,0.00,,,0.00,Wunderground v.1.15,2013-11-24 12:35:00,
2013-11-24 07:40:00,29.0,13.6,30.41,North,351,0.0,0.0,52,0.00,,,0.00,Wunderground v.1.15,2013-11-24 12:40:00,
2013-11-24 07:45:00,29.0,13.1,30.41,West,273,0.0,0.0,51,0.00,,,0.00,Wunderground v.1.15,2013-11-24 12:45:00,
2013-11-24 07:50:00,29.0,13.1,30.42,WNW,299,0.0,0.0,51,0.00,,,0.00,Wunderground v.1.15,2013-11-24 12:50:00,
2013-11-24 08:00:00,29.1,13.6,30.42,NW,313,0.0,0.0,52,0.00,,,0.00,Wunderground v.1.15,2013-11-24 13:00:00,
2013-11-24 08:05:00,29.2,14.2,30.42,SE,140,0.0,0.0,53,0.00,,,0.00,Wunderground v.1.15,2013-11-24 13:05:00,
2013-11-24 08:15:00,29.4,14.4,30.43,NW,325,0.0,1.0,53,0.00,,,0.00,Wunderground v.1.15,2013-11-24 13:15:00,
2013-11-24 08:20:00,29.6,14.1,30.43,WNW,296,1.0,1.0,52,0.00,,,0.00,Wunderground v.1.15,2013-11-24 13:20:00,
2013-11-24 08:25:00,29.6,13.2,30.44,West,262,1.0,1.0,50,0.00,,,0.00,Wunderground v.1.15,2013-11-24 13:25:00,
2013-11-24 08:30:00,29.7,12.8,30.44,East,94,1.0,1.0,49,0.00,,,0.00,Wunderground v.1.15,2013-11-24 13:30:00,
2013-11-24 08:35:00,29.9,12.1,30.44,SW,230,1.0,1.0,47,0.00,,,0.00,Wunderground v.1.15,2013-11-24 13:35:00,
2013-11-24 08:40:00,29.9,12.6,30.44,WNW,302,1.0,3.0,48,0.00,,,0.00,Wunderground v.1.15,2013-11-24 13:40:00,
2013-11-24 08:50:00,30.1,11.8,30.44,SE,137,2.0,7.0,46,0.00,,,0.00,Wunderground v.1.15,2013-11-24 13:50:00,
2013-11-24 08:55:00,30.2,10.9,30.45,North,5,3.0,7.0,44,0.00,,,0.00,Wunderground v.1.15,2013-11-24 13:55:00,
2013-11-24 09:00:00,30.2,10.4,30.46,NW,311,2.0,2.0,43,0.00,,,0.00,Wunderground v.1.15,2013-11-24 14:00:00,
2013-11-24 09:05:00,30.3,9.9,30.46,NW,313,2.0,3.0,42,0.00,,,0.00,Wunderground v.1.15,2013-11-24 14:05:00,
2013-11-24 09:15:00,30.4,9.5,30.46,West,281,2.0,2.0,41,0.00,,,0.00,Wunderground v.1.15,2013-11-24 14:15:00,
2013-11-24 09:20:00,30.5,8.4,30.46,WNW,288,1.0,4.0,39,0.00,,,0.00,Wunderground v.1.15,2013-11-24 14:20:00,
2013-11-24 09:30:00,30.6,8.5,30.46,West,271,2.0,2.0,39,0.00,,,0.00,Wunderground v.1.15,2013-11-24 14:30:00,
2013-11-24 09:35:00,30.7,8.6,30.46,WNW,293,1.0,2.0,39,0.00,,,0.00,Wunderground v.1.15,2013-11-24 14:35:00,
2013-11-24 09:40:00,30.7,8.6,30.47,SE,132,2.0,3.0,39,0.00,,,0.00,Wunderground v.1.15,2013-11-24 14:40:00,
2013-11-24 09:45:00,30.9,8.8,30.47,ENE,60,3.0,3.0,39,0.00,,,0.00,Wunderground v.1.15,2013-11-24 14:45:00,
2013-11-24 09:50:00,31.1,9.0,30.46,SW,216,2.0,2.0,39,0.00,,,0.00,Wunderground v.1.15,2013-11-24 14:50:00,
2013-11-24 10:00:00,31.5,9.4,30.47,SSW,207,2.0,3.0,39,0.00,,,0.00,Wunderground v.1.15,2013-11-24 15:00:00,
2013-11-24 10:05:00,31.6,8.9,30.47,West,277,2.0,9.0,38,0.00,,,0.00,Wunderground v.1.15,2013-11-24 15:05:00,
2013-11-24 10:15:00,31.7,9.0,30.48,SE,145,1.0,2.0,38,0.00,,,0.00,Wunderground v.1.15,2013-11-24 15:15:00,
2013-11-24 10:20:00,31.8,8.4,30.48,NNE,27,2.0,2.0,37,0.00,,,0.00,Wunderground v.1.15,2013-11-24 15:20:00,
2013-11-24 10:25:00,31.9,8.5,30.48,ESE,113,2.0,2.0,37,0.00,,,0.00,Wunderground v.1.15,2013-11-24 15:25:00,
2013-11-24 10:30:00,32.1,8.1,30.48,South,189,2.0,2.0,36,0.00,,,0.00,Wunderground v.1.15,2013-11-24 15:30:00,
2013-11-24 10:35:00,32.3,8.3,30.47,WNW,282,2.0,4.0,36,0.00,,,0.00,Wunderground v.1.15,2013-11-24 15:35:00,
2013-11-24 10:45:00,32.9,10.0,30.48,WSW,251,1.0,2.0,38,0.00,,,0.00,Wunderground v.1.15,2013-11-24 15:45:00,
2013-11-24 10:50:00,33.2,8.5,30.48,SSW,199,1.0,5.0,35,0.00,,,0.00,Wunderground v.1.15,2013-11-24 15:50:00,
2013-11-24 10:55:00,33.0,7.6,30.49,NW,304,3.0,5.0,34,0.00,,,0.00,Wunderground v.1.15,2013-11-24 15:55:00,
2013-11-24 11:00:00,33.0,8.3,30.49,West,261,2.0,7.0,35,0.00,,,0.00,Wunderground v.1.15,2013-11-24 16:00:00,
2013-11-24 11:05:00,33.1,8.4,30.49,WSW,254,2.0,7.0,35,0.00,,,0.00,Wunderground v.1.15,2013-11-24 16:05:00,
2013-11-24 11:15:00,33.3,8.6,30.48,SW,229,2.0,3.0,35,0.00,,,0.00,Wunderground v.1.15,2013-11-24 16:15:00,
2013-11-24 11:25:00,33.6,8.8,30.47,WSW,255,1.0,2.0,35,0.00,,,0.00,Wunderground v.1.15,2013-11-24 16:25:00,
2013-11-24 11:30:00,34.0,9.2,30.48,NNE,15,1.0,1.0,35,0.00,,,0.00,Wunderground v.1.15,2013-11-24 16:30:00,
2013-11-24 11:35:00,34.1,8.6,30.47,NW,321,1.0,1.0,34,0.00,,,0.00,Wunderground v.1.15,2013-11-24 16:35:00,
2013-11-24 11:40:00,34.2,10.0,30.47,West,274,1.0,1.0,36,0.00,,,0.00,Wunderground v.1.15,2013-11-24 16:40:00,
2013-11-24 11:45:00,34.4,10.2,30.47,ENE,65,1.0,1.0,36,0.00,,,0.00,Wunderground v.1.15,2013-11-24 16:45:00,
2013-11-24 11:55:00,35.0,10.1,30.46,WNW,298,1.0,3.0,35,0.00,,,0.00,Wunderground v.1.15,2013-11-24 16:55:00,
2013-11-24 12:00:00,35.1,10.2,30.46,NNW,340,1.0,2.0,35,0.00,,,0.00,Wunderground v.1.15,2013-11-24 17:00:00,
2013-11-24 12:05:00,35.4,11.7,30.46,WNW,292,1.0,3.0,37,0.00,,,0.00,Wunderground v.1.15,2013-11-24 17:05:00,
2013-11-24 12:15:00,35.9,11.5,30.45,NNW,338,1.0,1.0,36,0.00,,,0.00,Wunderground v.1.15,2013-11-24 17:15:00,
2013-11-24 12:20:00,36.0,10.3,30.45,ENE,69,1.0,2.0,34,0.00,,,0.00,Wunderground v.1.15,2013-11-24 17:20:00,
2013-11-24 12:25:00,36.1,10.4,30.45,SSW,211,1.0,2.0,34,0.00,,,0.00,Wunderground v.1.15,2013-11-24 17:25:00,
2013-11-24 12:35:00,35.7,10.7,30.45,WNW,296,2.0,2.0,35,0.00,,,0.00,Wunderground v.1.15,2013-11-24 17:35:00,
2013-11-24 12:40:00,35.6,9.9,30.44,SSE,166,1.0,1.0,34,0.00,,,0.00,Wunderground v.1.15,2013-11-24 17:40:00,
2013-11-24 12:45:00,35.7,11.3,30.44,NNE,24,1.0,1.0,36,0.00,,,0.00,Wunderground v.1.15,2013-11-24 17:45:00,
2013-11-24 12:50:00,35.9,10.9,30.45,WNW,296,1.0,1.0,35,0.00,,,0.00,Wunderground v.1.15,2013-11-24 17:50:00,
2013-11-24 12:55:00,36.0,10.3,30.44,WNW,302,2.0,2.0,34,0.00,,,0.00,Wunderground v.1.15,2013-11-24 17:55:00,
2013-11-24 13:05:00,36.0,11.0,30.44,West,275,1.0,2.0,35,0.00,,,0.00,Wunderground v.1.15,2013-11-24 18:05:00,
2013-11-24 13:15:00,36.2,10.5,30.43,East,98,2.0,2.0,34,0.00,,,0.00,Wunderground v.1.15,2013-11-24 18:15:00,
2013-11-24 13:20:00,36.3,11.2,30.43,North,360,1.0,1.0,35,0.00,,,0.00,Wunderground v.1.15,2013-11-24 18:20:00,
2013-11-24 13:25:00,36.4,10.7,30.44,West,262,2.0,3.0,34,0.00,,,0.00,Wunderground v.1.15,2013-11-24 18:25:00,
2013-11-24 13:30:00,36.3,9.9,30.44,ENE,63,2.0,4.0,33,0.00,,,0.00,Wunderground v.1.15,2013-11-24 18:30:00,
2013-11-24 13:35:00,36.2,9.8,30.43,SSE,157,2.0,4.0,33,0.00,,,0.00,Wunderground v.1.15,2013-11-24 18:35:00,
2013-11-24 13:40:00,36.2,10.5,30.44,West,265,2.0,2.0,34,0.00,,,0.00,Wunderground v.1.15,2013-11-24 18:40:00,
2013-11-24 13:50:00,36.5,10.7,30.44,North,351,1.0,2.0,34,0.00,,,0.00,Wunderground v.1.15,2013-11-24 18:50:00,
2013-11-24 13:55:00,36.6,10.2,30.44,North,5,2.0,2.0,33,0.00,,,0.00,Wunderground v.1.15,2013-11-24 18:55:00,
2013-11-24 14:00:00,36.4,10.0,30.44,NW,326,1.0,2.0,33,0.00,,,0.00,Wunderground v.1.15,2013-11-24 19:00:00,
2013-11-24 14:05:00,36.5,10.7,30.44,North,350,1.0,2.0,34,0.00,,,0.00,Wunderground v.1.15,2013-11-24 19:05:00,
2013-11-24 14:15:00,36.8,10.3,30.45,NW,309,1.0,2.0,33,0.00,,,0.00,Wunderground v.1.15,2013-11-24 19:15:00,
2013-11-24 14:20:00,36.6,9.5,30.44,WNW,298,1.0,3.0,32,0.00,,,0.00,Wunderground v.1.15,2013-11-24 19:20:00,
2013-11-24 14:25:00,36.6,10.2,30.44,South,173,1.0,3.0,33,0.00,,,0.00,Wunderground v.1.15,2013-11-24 19:25:00,
2013-11-24 14:35:00,36.6,9.5,30.44,SSW,202,2.0,2.0,32,0.00,,,0.00,Wunderground v.1.15,2013-11-24 19:35:00,
2013-11-24 14:40:00,36.7,9.6,30.44,ESE,112,2.0,2.0,32,0.00,,,0.00,Wunderground v.1.15,2013-11-24 19:40:00,
2013-11-24 14:45:00,36.7,10.3,30.44,NW,311,2.0,3.0,33,0.00,,,0.00,Wunderground v.1.15,2013-11-24 19:45:00,
2013-11-24 14:50:00,36.6,9.5,30.44,WSW,256,2.0,2.0,32,0.00,,,0.00,Wunderground v.1.15,2013-11-24 19:50:00,
2013-11-24 15:00:00,36.8,9.7,30.44,NW,313,3.0,3.0,32,0.00,,,0.00,Wunderground v.1.15,2013-11-24 20:00:00,
2013-11-24 15:05:00,36.8,9.7,30.44,NW,311,2.0,3.0,32,0.00,,,0.00,Wunderground v.1.15,2013-11-24 20:05:00,
2013-11-24 15:15:00,37.0,9.8,30.44,NW,315,1.0,2.0,32,0.00,,,0.00,Wunderground v.1.15,2013-11-24 20:15:00,
2013-11-24 15:20:00,36.9,9.7,30.44,WNW,296,2.0,2.0,32,0.00,,,0.00,Wunderground v.1.15,2013-11-24 20:20:00,
2013-11-24 15:25:00,37.1,9.9,30.45,West,269,1.0,4.0,32,0.00,,,0.00,Wunderground v.1.15,2013-11-24 20:25:00,
2013-11-24 15:30:00,37.0,9.8,30.45,NNW,327,1.0,4.0,32,0.00,,,0.00,Wunderground v.1.15,2013-11-24 20:30:00,
2013-11-24 15:35:00,36.9,10.4,30.45,WNW,301,1.0,4.0,33,0.00,,,0.00,Wunderground v.1.15,2013-11-24 20:35:00,
2013-11-24 15:45:00,36.9,9.0,30.45,NW,306,1.0,1.0,31,0.00,,,0.00,Wunderground v.1.15,2013-11-24 20:45:00,
2013-11-24 15:50:00,36.8,8.9,30.45,WNW,298,1.0,1.0,31,0.00,,,0.00,Wunderground v.1.15,2013-11-24 20:50:00,
2013-11-24 15:55:00,36.6,8.8,30.45,WNW,288,2.0,2.0,31,0.00,,,0.00,Wunderground v.1.15,2013-11-24 20:55:00,
2013-11-24 16:00:00,36.4,9.3,30.45,WNW,296,1.0,1.0,32,0.00,,,0.00,Wunderground v.1.15,2013-11-24 21:00:00,
2013-11-24 16:05:00,36.2,9.8,30.45,NW,319,1.0,1.0,33,0.00,,,0.00,Wunderground v.1.15,2013-11-24 21:05:00,
2013-11-24 16:15:00,35.9,9.5,30.46,South,190,0.0,1.0,33,0.00,,,0.00,Wunderground v.1.15,2013-11-24 21:15:00,
2013-11-24 16:20:00,35.4,8.4,30.46,WSW,254,1.0,1.0,32,0.00,,,0.00,Wunderground v.1.15,2013-11-24 21:20:00,
2013-11-24 16:30:00,34.8,9.2,30.47,NW,313,0.0,0.0,34,0.00,,,0.00,Wunderground v.1.15,2013-11-24 21:30:00,
2013-11-24 16:35:00,34.4,8.9,30.47,NW,309,0.0,0.0,34,0.00,,,0.00,Wunderground v.1.15,2013-11-24 21:35:00,
2013-11-24 16:40:00,34.4,8.9,30.46,South,184,1.0,1.0,34,0.00,,,0.00,Wunderground v.1.15,2013-11-24 21:40:00,
2013-11-24 16:45:00,34.1,8.6,30.46,WNW,292,1.0,1.0,34,0.00,,,0.00,Wunderground v.1.15,2013-11-24 21:45:00,
2013-11-24 16:55:00,33.6,8.8,30.46,NW,312,0.0,0.0,35,0.00,,,0.00,Wunderground v.1.15,2013-11-24 21:55:00,
2013-11-24 17:05:00,33.0,8.9,30.47,West,275,0.0,0.0,36,0.00,,,0.00,Wunderground v.1.15,2013-11-24 22:05:00,
2013-11-24 17:15:00,32.5,8.5,30.47,NW,323,0.0,0.0,36,0.00,,,0.00,Wunderground v.1.15,2013-11-24 22:15:00,
2013-11-24 17:20:00,32.3,8.3,30.47,NW,323,0.0,0.0,36,0.00,,,0.00,Wunderground v.1.15,2013-11-24 22:20:00,
2013-11-24 17:25:00,32.1,9.9,30.48,NW,323,0.0,0.0,39,0.00,,,0.00,Wunderground v.1.15,2013-11-24 22:25:00,
2013-11-24 17:35:00,31.6,11.1,30.48,NW,323,0.0,0.0,42,0.00,,,0.00,Wunderground v.1.15,2013-11-24 22:35:00,
2013-11-24 17:40:00,31.2,11.3,30.48,NW,323,0.0,0.0,43,0.00,,,0.00,Wunderground v.1.15,2013-11-24 22:40:00,
2013-11-24 17:45:00,30.8,11.4,30.48,NW,323,0.0,0.0,44,0.00,,,0.00,Wunderground v.1.15,2013-11-24 22:45:00,
2013-11-24 17:50:00,30.5,9.0,30.48,North,5,0.0,0.0,40,0.00,,,0.00,Wunderground v.1.15,2013-11-24 22:50:00,
2013-11-24 17:55:00,30.4,10.5,30.49,North,5,0.0,0.0,43,0.00,,,0.00,Wunderground v.1.15,2013-11-24 22:55:00,
2013-11-24 18:05:00,29.9,10.6,30.49,North,5,0.0,0.0,44,0.00,,,0.00,Wunderground v.1.15,2013-11-24 23:05:00,
2013-11-24 18:15:00,29.4,11.1,30.50,North,5,0.0,0.0,46,0.00,,,0.00,Wunderground v.1.15,2013-11-24 23:15:00,
2013-11-24 18:20:00,29.0,11.7,30.50,North,5,0.0,0.0,48,0.00,,,0.00,Wunderground v.1.15,2013-11-24 23:20:00,
2013-11-24 18:25:00,28.7,11.9,30.50,North,5,0.0,0.0,49,0.00,,,0.00,Wunderground v.1.15,2013-11-24 23:25:00,
2013-11-24 18:30:00,28.5,11.7,30.50,North,5,0.0,0.0,49,0.00,,,0.00,Wunderground v.1.15,2013-11-24 23:30:00,
2013-11-24 18:35:00,28.2,13.2,30.50,North,5,0.0,0.0,53,0.00,,,0.00,Wunderground v.1.15,2013-11-24 23:35:00,
2013-11-24 18:45:00,27.8,12.9,30.51,North,5,0.0,0.0,53,0.00,,,0.00,Wunderground v.1.15,2013-11-24 23:45:00,
2013-11-24 18:50:00,27.6,13.1,30.51,North,5,0.0,0.0,54,0.00,,,0.00,Wunderground v.1.15,2013-11-24 23:50:00,
2013-11-24 18:55:00,27.5,13.8,30.51,North,5,0.0,0.0,56,0.00,,,0.00,Wunderground v.1.15,2013-11-24 23:55:00,
2013-11-24 19:00:00,27.4,13.3,30.51,North,5,0.0,0.0,55,0.00,,,0.00,Wunderground v.1.15,2013-11-25 00:00:00,
2013-11-24 19:05:00,27.2,13.6,30.51,North,5,0.0,0.0,56,0.00,,,0.00,Wunderground v.1.15,2013-11-25 00:05:00,
2013-11-24 19:15:00,27.0,13.4,30.52,North,5,0.0,0.0,56,0.00,,,0.00,Wunderground v.1.15,2013-11-25 00:15:00,
2013-11-24 19:20:00,26.9,13.3,30.52,North,5,0.0,0.0,56,0.00,,,0.00,Wunderground v.1.15,2013-11-25 00:20:00,
2013-11-24 19:30:00,26.7,12.7,30.53,North,5,0.0,0.0,55,0.00,,,0.00,Wunderground v.1.15,2013-11-25 00:30:00,
2013-11-24 19:35:00,26.6,13.0,30.53,North,5,0.0,0.0,56,0.00,,,0.00,Wunderground v.1.15,2013-11-25 00:35:00,
2013-11-24 19:40:00,26.4,14.0,30.52,North,5,0.0,0.0,59,0.00,,,0.00,Wunderground v.1.15,2013-11-25 00:40:00,
2013-11-24 19:45:00,26.2,13.8,30.52,North,5,0.0,0.0,59,0.00,,,0.00,Wunderground v.1.15,2013-11-25 00:45:00,
2013-11-24 19:50:00,26.1,14.1,30.53,North,5,0.0,0.0,60,0.00,,,0.00,Wunderground v.1.15,2013-11-25 00:50:00,
2013-11-24 20:00:00,25.9,13.9,30.53,North,5,0.0,0.0,60,0.00,,,0.00,Wunderground v.1.15,2013-11-25 01:00:00,
2013-11-24 20:05:00,25.8,13.4,30.52,North,5,0.0,0.0,59,0.00,,,0.00,Wunderground v.1.15,2013-11-25 01:05:00,
2013-11-24 20:15:00,25.7,14.5,30.53,North,5,0.0,0.0,62,0.00,,,0.00,Wunderground v.1.15,2013-11-25 01:15:00,
2013-11-24 20:20:00,25.6,14.0,30.53,North,5,0.0,0.0,61,0.00,,,0.00,Wunderground v.1.15,2013-11-25 01:20:00,
2013-11-24 20:25:00,25.5,14.3,30.53,North,5,0.0,0.0,62,0.00,,,0.00,Wunderground v.1.15,2013-11-25 01:25:00,
2013-11-24 20:30:00,25.4,13.8,30.54,North,5,0.0,0.0,61,0.00,,,0.00,Wunderground v.1.15,2013-11-25 01:30:00,
2013-11-24 20:35:00,25.3,14.1,30.54,North,5,0.0,0.0,62,0.00,,,0.00,Wunderground v.1.15,2013-11-25 01:35:00,
2013-11-24 20:45:00,25.2,14.0,30.54,North,5,0.0,0.0,62,0.00,,,0.00,Wunderground v.1.15,2013-11-25 01:45:00,
2013-11-24 20:50:00,25.3,14.1,30.54,North,5,0.0,0.0,62,0.00,,,0.00,Wunderground v.1.15,2013-11-25 01:50:00,
2013-11-24 20:55:00,25.2,14.4,30.54,North,5,0.0,0.0,63,0.00,,,0.00,Wunderground v.1.15,2013-11-25 01:55:00,
2013-11-24 21:00:00,25.1,14.6,30.55,North,5,0.0,0.0,64,0.00,,,0.00,Wunderground v.1.15,2013-11-25 02:00:00,
2013-11-24 21:05:00,25.1,14.6,30.55,North,5,0.0,0.0,64,0.00,,,0.00,Wunderground v.1.15,2013-11-25 02:05:00,
2013-11-24 21:15:00,24.9,14.4,30.54,North,5,0.0,0.0,64,0.00,,,0.00,Wunderground v.1.15,2013-11-25 02:15:00,
2013-11-24 21:20:00,24.8,14.7,30.55,North,5,0.0,0.0,65,0.00,,,0.00,Wunderground v.1.15,2013-11-25 02:20:00,
2013-11-24 21:30:00,24.6,14.5,30.55,North,5,0.0,0.0,65,0.00,,,0.00,Wunderground v.1.15,2013-11-25 02:30:00,
2013-11-24 21:35:00,24.5,14.4,30.55,North,5,0.0,0.0,65,0.00,,,0.00,Wunderground v.1.15,2013-11-25 02:35:00,
2013-11-24 21:40:00,24.4,14.0,30.55,North,5,0.0,0.0,64,0.00,,,0.00,Wunderground v.1.15,2013-11-25 02:40:00,
2013-11-24 21:45:00,24.3,14.6,30.55,North,5,0.0,0.0,66,0.00,,,0.00,Wunderground v.1.15,2013-11-25 02:45:00,
2013-11-24 21:55:00,24.1,14.4,30.56,North,5,0.0,0.0,66,0.00,,,0.00,Wunderground v.1.15,2013-11-25 02:55:00,
2013-11-24 22:00:00,24.0,13.2,30.56,North,5,0.0,0.0,63,0.00,,,0.00,Wunderground v.1.15,2013-11-25 03:00:00,
2013-11-24 22:05:00,24.1,14.0,30.55,North,5,0.0,0.0,65,0.00,,,0.00,Wunderground v.1.15,2013-11-25 03:05:00,
2013-11-24 22:15:00,24.0,13.9,30.56,North,5,0.0,0.0,65,0.00,,,0.00,Wunderground v.1.15,2013-11-25 03:15:00,
2013-11-24 22:20:00,24.0,14.3,30.56,North,5,0.0,0.0,66,0.00,,,0.00,Wunderground v.1.15,2013-11-25 03:20:00,
2013-11-24 22:25:00,23.9,14.5,30.56,North,5,0.0,0.0,67,0.00,,,0.00,Wunderground v.1.15,2013-11-25 03:25:00,
2013-11-24 22:30:00,23.8,14.8,30.56,North,5,0.0,0.0,68,0.00,,,0.00,Wunderground v.1.15,2013-11-25 03:30:00,
2013-11-24 22:40:00,23.7,13.6,30.56,North,5,0.0,0.0,65,0.00,,,0.00,Wunderground v.1.15,2013-11-25 03:40:00,
2013-11-24 22:45:00,23.6,14.6,30.57,North,5,0.0,0.0,68,0.00,,,0.00,Wunderground v.1.15,2013-11-25 03:45:00,
2013-11-24 22:50:00,23.5,14.5,30.57,North,5,0.0,0.0,68,0.00,,,0.00,Wunderground v.1.15,2013-11-25 03:50:00,
2013-11-24 22:55:00,23.5,13.8,30.57,North,5,0.0,0.0,66,0.00,,,0.00,Wunderground v.1.15,2013-11-25 03:55:00,
2013-11-24 23:05:00,23.3,14.6,30.57,North,5,0.0,0.0,69,0.00,,,0.00,Wunderground v.1.15,2013-11-25 04:05:00,
2013-11-24 23:15:00,23.2,14.9,30.57,North,5,0.0,0.0,70,0.00,,,0.00,Wunderground v.1.15,2013-11-25 04:15:00,
2013-11-24 23:25:00,22.9,14.6,30.57,North,5,0.0,0.0,70,0.00,,,0.00,Wunderground v.1.15,2013-11-25 04:25:00,
2013-11-24 23:30:00,22.8,15.1,30.58,North,5,0.0,0.0,72,0.00,,,0.00,Wunderground v.1.15,2013-11-25 04:30:00,
2013-11-24 23:35:00,22.7,14.7,30.57,North,5,0.0,0.0,71,0.00,,,0.00,Wunderground v.1.15,2013-11-25 04:35:00,
2013-11-24 23:40:00,22.7,15.0,30.57,North,5,0.0,0.0,72,0.00,,,0.00,Wunderground v.1.15,2013-11-25 04:40:00,
2013-11-24 23:45:00,22.6,15.2,30.58,North,5,0.0,0.0,73,0.00,,,0.00,Wunderground v.1.15,2013-11-25 04:45:00,
2013-11-24 23:55:00,22.4,14.7,30.57,North,5,0.0,0.0,72,0.00,,,0.00,Wunderground v.1.15,2013-11-25 04:55:00,